Flight Track Log - Related Links

Times and Time Zones

All times are in EDT time to prevent confusion due to time zone crossing. See the SWA862 flight status page for this flight to view local times or setup timezone preferences in your user account.

Time Position Orientation Groundspeed Altitude Reporting Facility
EDT Latitude Longitude Course Direction KTS MPH feet Rate Location/Type
Wed 10:47:32 AM 29.6747 -95.2386 33° Northeast 234 269 3,400  Level Houston Center
Wed 10:48:05 AM 29.7061 -95.2425 354° North 225 259 5,200 3,491 Climbing Houston Center
Wed 10:48:27 AM 29.7281 -95.2683 314° West 257 296 6,600 3,619 Climbing Houston Center
Wed 10:49:08 AM 29.7478 -95.3058 301° West 257 296 9,000 3,246 Climbing Houston Center
Wed 10:49:28 AM 29.7617 -95.3389 296° West 258 297 9,900 1,645 Climbing Houston Center
Wed 10:50:10 AM 29.7811 -95.3906 293° West 289 333 10,700 1,672 Climbing Houston Center
Wed 10:50:29 AM 29.7889 -95.4511 278° West 378 435 11,600 3,290 Climbing Houston Center
Wed 10:51:12 AM 29.8031 -95.5308 282° West 375 432 14,100 2,629 Climbing Houston Center
Wed 10:52:14 AM 29.8267 -95.6469 283° West 377 434 16,200 2,129 Climbing Houston Center
Wed 10:53:16 AM 29.8533 -95.7772 283° West 411 473 18,500 2,274 Climbing Houston Center
Wed 10:54:18 AM 29.8781 -95.9097 282° West 420 483 20,900 1,680 Climbing Houston Center
Wed 10:55:21 AM 29.9069 -96.0583 283° West 427 491 22,000 528 Climbing Houston Center
Wed 10:56:23 AM 29.9356 -96.1989 283° West 444 511 22,000  Level Houston Center
Wed 10:57:25 AM 29.9578 -96.3386 280° West 445 512 22,000 -629 Level Houston Center
Wed 10:58:27 AM 29.9789 -96.4789 280° West 446 513 20,700 -2,323 Descending Houston Center
Wed 10:59:29 AM 30.0078 -96.6450 281° West 440 506 17,200 -3,290 Descending Houston Center
Wed 11:00:31 AM 30.0328 -96.7756 283° West 424 488 13,900 -2,544 Descending Houston Center
Wed 11:01:34 AM 30.0581 -96.9014 283° West 410 472 11,900 -1,344 Descending Houston Center
Wed 11:02:36 AM 30.0917 -97.0114 289° West 372 428 11,100 -968 Descending Houston Center
Wed 11:03:38 AM 30.1258 -97.1214 290° West 347 399 9,900 -1,161 Descending Houston Center
Wed 11:04:40 AM 30.1528 -97.2133 289° West 307 353 8,700 -1,258 Descending Houston Center
Wed 11:05:42 AM 30.1803 -97.3022 290° West 298 343 7,300 -1,536 Descending Houston Center
Wed 11:06:45 AM 30.2314 -97.3928 303° West 284 327 5,500 -1,584 Descending Houston Center
Wed 11:07:47 AM 30.2725 -97.4658 303° West 277 319 4,000 -1,403 Descending Houston Center
Wed 11:08:49 AM 30.3147 -97.5350 305° West 270 311 2,600 -726 Descending Houston Center
Wed 11:09:51 AM 30.3258 -97.6089 280° West 256 295 2,500 -145 Descending Houston Center
Wed 11:10:53 AM 30.2869 -97.6597 228° Southwest 233 268 2,300 -576 Descending Houston Center
Wed 11:11:56 AM 30.2403 -97.6589 179° South 189 217 1,300 -952 Descending Houston Center
Wed 11:13:00 AM 30.1945 -97.6699 188° South  Level Estimated
Wed 11:20:00 AM 30.1945 -97.6699 188° South  Level Estimated

Login

Don't have an account? Register now (free) for customized features, flight alerts, and more!